Flag for Canada Weather past 2 weeks in St. John's, Newfoundland and Labrador, Canada

Now
28 °F

Light snow. Ice fog.


Feels Like: 15 °F
Forecast: 26 / 33 °F
Wind: 20 mph from North

Location: St. John's


UV Index: 0 (Low)

Visibility: 2 mi


Pressure: 29.66 "Hg

Humidity: 93%

Dew point: 27 °F

Location of St. John'sLocation

Historic Weather in St. John's

°F

St. John's temperature yesterday

Maximum temperature yesterday: 30 °F (at 1:30 PM)
Minimum temperature yesterday: 25 °F (at 12:30 AM)
Average temperature yesterday: 28 °F

Past Weeks' High & Low Weather Summary

 TemperatureHumidityPressure
High64 °F (Apr 16, 1:30 PM)100% (Apr 5, 3:30 AM)30.77 "Hg (Apr 5, 3:30 AM)
Low21 °F (Apr 5, 2:30 AM)37% (Apr 11, 12:30 PM)29.35 "Hg (Apr 10, 4:30 AM)
Average36 °F83%30.10 "Hg
* Reported Apr 4 11:30 PM — Apr 19 11:30 PM, St. John's, Weather by CustomWeather, © 2014

Note: Actual official high and low records may vary slightly from our data, if they occured in-between our weather recording intervals... More about our weather records

Advertising

Historic Weather Conditions — Data for Previous 24 hours

 ConditionsComfort  
Time TempWeatherWind HumidityBarometerVisibility
11:30 PM
Apr 19
28 °FLight snow. Ice fog.18 mph93%29.66 "Hg3 mi
10:30 PM28 °FLight snow. Ice fog.17 mph100%29.67 "Hg2 mi
9:30 PM30 °FLight freezing rain. Ice fog.18 mph100%29.69 "Hg1 mi
8:30 PM30 °FLight freezing rain. Ice fog.18 mph93%29.73 "Hg1 mi
7:30 PM30 °FChilly.20 mph100%29.74 "Hg1 mi
6:30 PM30 °FLight freezing rain. Ice fog.17 mph100%29.78 "Hg1 mi
5:30 PM30 °FLight freezing rain. Ice fog.17 mph100%29.80 "Hg0 mi
4:30 PM30 °FLight freezing rain. Ice fog.18 mph100%29.84 "Hg1 mi
4:17 PM30 °FLight freezing rain. Ice fog.15 mph100%29.87 "Hg1 mi
3:30 PM30 °FLight freezing rain. Ice fog.18 mph100%29.90 "Hg0 mi
2:30 PM30 °FLight snow. Ice fog.18 mph93%29.98 "Hg5 mi
1:30 PM30 °FLight snow. Ice fog.14 mph93%30.05 "Hg1 mi
12:30 PM28 °FLight snow. Low clouds.13 mph100%30.10 "Hg8 mi
11:30 AM28 °FLow clouds.16 mph93%30.14 "Hg15 mi
10:30 AM28 °FLow clouds.15 mph93%30.19 "Hg15 mi
9:30 AM28 °FLow clouds.10 mph93%30.24 "Hg15 mi
8:30 AM28 °FOvercast.15 mph86%30.26 "Hg15 mi
7:30 AM28 °FOvercast.15 mph86%30.29 "Hg15 mi
6:30 AM27 °FOvercast.15 mph86%30.32 "Hg15 mi
5:30 AM27 °FPassing clouds.14 mph86%30.33 "Hg15 mi
4:30 AM27 °FPassing clouds.14 mph86%30.36 "Hg15 mi
3:30 AM25 °FPassing clouds.9 mph93%30.40 "Hg15 mi
2:30 AM25 °FPassing clouds.12 mph86%30.42 "Hg15 mi
1:30 AM25 °FPassing clouds.10 mph86%30.46 "Hg15 mi
Weather by CustomWeather, © 2014

See weather overview